SCP
0 0 0 0 0 0 0 0 0 0 0 0 1 0 0 0 0 0 0 0 0 0 0 1 1 1 1 1 1 1 1 1 1 1 1 1 1 1
0 0 0 0 0 0 0 0 0 0 0 0 0 0 0 0 0 0 0 0 0 0 0 1 1 1 1 1 1 1 1 1 1 1 1 1 1 1
0 0 0 0 0 0 0 0 0 0 0 0 0 0 0 0 0 0 0 0 0 0 0 0 0 0 1 1 1 1 1 1 1 1 1 1 1 1
0 0 0 0 0 0 0 0 0 0 0 0 0 0 0 0 0 0 0 0 0 0 0 0 0 0 0 1 1 1 1 0 0 1 1 1 1 1
0 0 0 0 0 0 0 0 0 0 0 0 0 0 0 0 0 0 0 0 0 0 0 0 0 0 0 0 0 0 0 0 0 0 0 1 1 1
0 0 0 0 0 0 0 0 0 0 0 0 0 0 0 0 0 0 0 0 0 0 0 0 0 0 0 0 0 0 0 0 0 0 0 0 0 0
0 0 0 0 0 0 0 0 0 0 0 0 0 0 0 0 0 0 0 0 0 0 1 0 0 1 0 0 0 0 0 0 0 0 0 0 0 0
0 0 0 0 0 0 0 0 0 0 0 0 0 0 0 0 0 0 0 0 0 1 1 0 0 1 1 0 0 0 0 0 0 0 0 0 0 0
0 0 0 0 0 0 0 0 0 0 0 0 0 0 0 0 0 0 0 0 0 0 1 0 0 0 1 0 0 0 0 0 0 0 0 0 0 0
0 0 0 0 0 0 0 0 0 0 0 0 0 0 0 0 0 0 0 0 0 0 0 0 0 0 0 0 0 0 0 0 0 0 0 0 0 0
0 0 0 0 0 0 0 0 0 0 0 0 0 0 0 0 0 0 0 0 0 0 0 0 0 0 0 0 0 0 0 0 0 0 0 0 0 0
0 0 0 0 0 0 0 0 0 0 0 0 0 0 0 0 0 0 0 0 0 0 0 0 0 0 0 0 0 0 0 0 0 0 0 0 0 0
0 0 0 0 0 0 0 0 0 0 0 0 0 0 0 0 0 0 0 0 0 0 0 0 0 0 0 0 0 0 0 0 0 0 0 0 0 0
0 0 0 0 0 0 0 0 0 0 0 0 0 0 0 0 0 0 0 0 0 0 0 0 0 0 0 0 0 0 0 1 1 1 1 0 0 0
0 0 0 0 0 0 0 0 0 0 0 0 0 0 0 0 0 0 0 0 0 0 0 0 0 0 0 0 0 0 0 1 1 1 1 1 0 0
0 0 0 0 0 0 0 0 0 0 0 0 0 0 0 0 0 0 0 0 0 0 0 0 0 0 0 0 0 0 0 0 1 1 1 1 0 0
0 0 0 0 0 0 0 0 0 0 0 0 0 0 0 0 0 0 0 0 0 0 0 0 0 0 0 0 0 0 0 0 0 1 1 0 0 0
0 0 0 0 0 0 0 0 0 0 0 0 0 0 0 0 0 0 0 0 0 0 0 0 0 0 0 0 0 0 0 0 0 0 0 0 0 0
0 0 0 0 0 0 0 0 0 0 0 0 0 0 0 0 0 0 0 0 0 0 0 0 0 0 0 0 0 0 0 0 0 0 0 0 0 0
0 0 0 0 0 0 0 0 0 0 0 0 0 0 0 0 0 0 0 0 0 0 0 0 0 0 0 0 0 0 0 0 0 0 0 0 0 0
0 0 0 0 0 0 0 0 0 0 0 0 0 0 0 0 0 0 0 0 0 0 0 0 0 0 0 0 0 0 0 0 0 0 0 0 0 0
0 0 0 0 0 0 0 0 0 0 0 0 0 0 0 0 0 0 0 0 0 0 0 0 0 0 0 0 0 0 0 0 0 0 0 0 0 0
0 0 0 0 0 0 0 0 0 0 0 0 0 0 0 0 0 0 0 0 0 0 0 0 0 0 0 0 0 0 0 0 0 0 0 0 0 0
Wind_Speed
2 2 2 2 2 2 3 3 2 2 2 3 2 2 2 2 4 5 5 9 12 13 14 14 15 15 16 16 16 15 15 15 14 14 14 14 13 13
1 2 2 2 2 2 3 3 3 3 3 2 2 2 2 3 4 5 6 8 10 12 13 14 15 15 15 15 15 15 14 14 14 14 14 14 13 13
2 2 3 2 2 2 2 2 3 3 4 3 2 2 2 3 3 3 4 5 5 10 12 13 14 15 15 15 15 15 15 14 14 15 15 15 14 14
3 2 3 2 2 2 2 3 2 3 3 4 2 2 3 3 3 3 3 4 4 8 11 12 13 14 14 15 15 15 15 15 15 15 16 16 16 16
3 3 3 3 3 2 3 3 2 3 3 3 3 2 2 2 2 3 3 3 4 6 9 11 12 13 14 15 15 15 15 16 15 16 16 16 16 16
3 3 3 3 4 3 3 3 3 3 3 3 3 2 2 2 2 2 3 3 3 4 5 6 9 11 13 14 15 15 15 15 15 16 16 16 15 15
3 3 4 5 6 4 3 3 3 3 3 3 3 2 3 2 3 2 3 3 3 3 3 4 4 5 7 11 13 15 15 16 16 16 16 16 16 16
4 4 4 4 5 6 6 4 4 4 4 4 3 4 4 4 3 3 3 3 3 3 3 4 4 5 5 5 10 14 15 16 16 16 17 17 17 17
3 3 3 3 4 3 5 5 5 5 6 4 5 5 4 4 4 4 4 4 4 2 3 4 3 5 4 6 11 14 15 16 16 17 17 17 17 17
3 3 3 4 4 3 3 3 3 4 4 4 5 5 5 4 5 5 4 4 3 2 3 3 3 4 4 5 10 14 15 16 17 17 18 18 17 17
3 3 3 4 6 6 3 4 4 4 5 6 7 7 8 8 6 3 3 4 4 3 4 3 2 2 3 4 6 12 13 14 15 17 18 17 17 17
4 4 5 5 8 7 3 4 5 5 4 4 4 5 5 6 7 6 5 5 4 3 4 4 3 2 3 3 4 5 7 10 13 15 16 16 16 11
3 4 4 8 9 8 6 4 7 6 4 4 4 4 3 3 4 4 5 5 6 5 4 4 3 3 3 2 2 4 5 5 6 8 12 15 16 14
3 3 4 9 9 8 5 6 8 6 3 3 3 4 3 3 3 4 5 6 6 6 5 5 4 4 4 3 3 3 4 5 5 6 6 10 13 16
2 5 7 8 8 5 6 7 5 2 2 3 4 4 3 4 3 3 4 5 6 6 6 6 5 5 5 5 4 3 3 4 5 6 6 7 7 7
3 5 7 7 5 5 6 5 3 2 3 3 4 4 3 3 3 3 3 4 4 4 5 7 7 7 6 6 5 5 5 4 5 6 6 5 6 7
3 3 4 5 6 6 5 5 4 4 4 3 4 4 4 4 4 3 3 3 4 4 4 3 5 6 7 6 6 6 6 5 5 6 6 6 6 7
6 4 5 5 5 5 5 5 4 5 5 5 4 4 4 5 5 4 3 4 5 5 5 4 3 3 3 5 8 7 6 6 5 6 6 7 7 7
6 4 4 5 5 5 5 5 5 5 5 5 5 5 5 5 5 5 4 4 5 5 5 4 4 5 7 7 6 10 8 6 5 6 6 6 7 7
4 4 4 4 4 5 5 5 5 6 5 5 5 6 6 6 6 5 5 6 6 5 5 4 5 7 8 7 4 5 10 7 6 7 6 4 2 2
3 3 3 3 3 4 4 4 4 5 6 6 6 6 6 6 7 7 6 8 7 6 6 6 6 7 5 3 4 4 5 9 9 6 6 5 4 4
2 3 3 3 3 3 4 4 4 4 5 5 5 6 6 6 7 8 7 7 7 7 8 6 4 4 5 7 7 6 5 5 6 8 8 8 6 8
3 3 3 3 3 3 4 4 5 4 4 5 5 5 6 6 6 7 8 7 7 8 8 7 4 4 6 7 7 6 7 6 5 5 5 6 7 6
Wind_Direction
279 268 259 259 246 235 222 200 197 223 251 253 250 246 228 214 209 207 214 218 218 218 218 217 216 215 214 213 214 216 217 213 209 204 204 206 207 208
281 281 280 269 266 248 229 217 210 211 238 254 241 251 245 239 217 214 218 220 221 220 218 217 216 216 214 211 210 210 212 210 207 203 202 205 206 207
309 290 284 277 268 260 238 222 215 209 237 260 250 253 237 240 236 221 219 218 221 220 220 219 217 214 212 211 208 207 207 205 205 204 204 204 205 207
303 296 289 289 279 271 250 237 228 218 223 248 251 245 244 237 233 230 228 224 221 223 221 220 216 213 211 211 209 206 205 204 205 205 205 207 208 208
284 282 283 284 277 268 255 241 234 231 221 236 249 243 251 245 243 245 236 232 230 228 223 222 218 213 211 210 209 207 205 204 204 204 205 207 207 207
279 275 277 268 264 263 257 244 232 231 231 238 245 245 246 239 225 237 247 231 235 231 228 222 219 217 215 211 210 209 207 205 205 204 204 204 203 204
296 284 278 278 275 266 254 236 219 224 231 237 241 242 238 223 226 222 239 247 242 219 222 223 213 216 214 214 213 211 208 206 205 205 204 202 201 203
299 301 294 293 306 310 302 280 243 226 228 231 238 241 243 232 227 226 231 233 250 213 205 226 202 220 215 210 211 209 209 208 206 205 204 203 203 203
284 296 308 309 318 310 310 305 289 272 251 235 240 245 242 231 223 234 230 228 233 215 202 237 210 226 219 218 210 210 211 210 208 206 205 205 204 203
279 272 280 296 300 299 298 299 289 281 268 249 238 246 246 242 231 235 241 242 252 231 198 232 220 226 219 218 215 212 212 212 212 211 209 206 203 202
295 287 285 287 300 313 301 292 292 289 275 259 256 257 258 257 242 230 229 233 249 235 200 213 220 230 229 228 222 216 216 216 214 213 211 206 202 200
307 301 298 298 303 312 292 279 285 287 292 295 287 281 266 258 246 230 226 232 240 239 204 193 199 193 244 230 218 214 216 220 216 214 210 205 198 199
302 305 305 315 313 310 298 266 272 288 286 281 284 282 272 258 248 234 226 226 231 238 206 187 197 195 218 242 229 216 213 215 214 216 211 205 199 197
284 295 304 319 321 318 310 294 294 298 286 285 285 282 276 268 261 250 239 233 233 238 219 199 210 208 213 231 240 225 213 209 208 213 209 202 203 204
296 314 327 337 339 337 339 337 330 311 293 287 287 285 272 270 273 269 254 242 240 237 225 217 218 217 221 230 226 218 222 219 209 208 204 201 198 195
355 357 4 7 6 358 355 356 349 327 312 293 288 286 285 279 273 266 263 257 251 248 227 220 219 217 228 231 226 227 216 215 205 205 203 203 200 200
15 23 22 16 15 9 3 357 349 346 335 316 303 301 297 288 281 271 259 256 252 252 248 228 221 225 229 223 229 227 220 221 215 201 199 208 209 204
49 36 23 15 11 3 357 353 352 350 340 331 321 310 305 304 299 285 263 260 261 257 251 237 219 227 237 239 221 226 223 221 213 205 204 211 215 206
49 34 20 9 1 356 353 351 346 340 337 336 335 330 321 311 305 302 292 277 268 263 256 238 224 229 243 249 228 209 215 214 205 207 211 215 221 208
34 25 11 360 355 353 351 348 343 342 344 341 339 337 334 325 317 310 302 292 284 276 266 245 233 232 240 248 238 218 208 207 207 213 210 206 215 188
11 2 353 348 344 342 342 340 339 338 339 339 339 337 333 329 324 318 309 302 292 282 273 264 254 241 241 229 234 231 214 208 207 207 194 189 192 191
346 340 334 331 328 327 326 326 329 330 331 331 331 332 329 325 320 318 315 310 302 293 284 279 270 246 229 233 242 239 227 210 215 216 206 192 185 196
329 325 321 320 317 314 314 316 318 317 318 319 320 320 322 321 317 312 311 310 306 303 298 290 275 257 250 242 242 237 226 214 200 202 217 217 219 225